星链-36138(STARLINK-36138)

导读

STARLINK-36138是美国SpaceX星链互联网星座的卫星,于2025年12月11日发射升空,属于星链低轨互联网卫星组网的一部分。星链项目依托海量低轨卫星,旨在为全球提供高速宽带互联网服务,这颗卫星入轨后,将进一步扩充星链星座规模,服务全球用户的网络接入需求。

基本信息
目录编号:
67030
目录名称:
STARLINK-36138
国际标识:
2025-294A
轨道中心:
EARTH
卫星名称:
星链-36138
卫星全名:
星链-36138(STARLINK-36138)
卫星状态:
在轨 (已飞行267 天)
发射日期:
2025-12-11 UTC
国别 :
美国 (US)
星等 :
--
轨道信息
数据来源 国际轨道数据
星历时间: 2026-09-03T23:26:12+0800
20小时前
查看轨道信息
半长轴: 6861.179km
偏心率: 0.0001112
轨道倾角: 42.999°
近地点辐角 268.099°
升交点赤经 113.199°
平近点角 91.974°
近地点: 482.279km
远地点: 483.805km
周期: 94.267分钟
每日圈数: 15.275827
详细信息
固有亮度:
5
最大亮度:
2.5
卫星平台:
Starlink V1.0
覆盖范围:
全球
运营商:
太空探索技术公司
运营商所在国:
美国
制造商(研发单位):
太空探索技术公司
制造商所在国:
美国
使用方式:
暂无
卫星简介
Starlink 计划是 SpaceX 推出的全球卫星互联网项目,通过发射低轨道卫星,为全球尤其是偏远地区提供高速、低延迟的互联网服务。自 2019 年起,Starlink 已部署数千颗卫星,旨在缩小全球数字鸿沟,推动互联网普及。该项目还为军事、航空等行业提供通信支持,带来广泛经济效益。
2D轨道图
3D轨道图
轨道高度分析图
轨道倾角分析图
轨道综合分析图
查看轨道综合分析图
交会数据列表
事件ID 空间交会对象 最接近时刻(TCA) 交会距离 交会风险概率(CRP) 交会风险指数(CRI) 操作
CDM_260906-143305-705906-703021
2026-09-06T
14:33:59+0000
0.593 km
远距离
7.73215E-5 中风险 0.73
CDM_260905-214104-379406-703022
HAWK-B (43794)
2026-09-05T
21:41:53+0000
1.083 km
极远距离
2.001436E-5 中风险 0.61
CDM_260906-125905-705906-703021
2026-09-06T
12:59:50+0000
1.545 km
极远距离
3.379117E-6 低风险 0.46
CDM_260906-160805-705906-703021
2026-09-06T
16:08:09+0000
2.765 km
极远距离
9.022447E-7 极低风险 0.34